Time,TemperatureF,DewpointF,PressureIn,WindDirection,WindDirectionDegrees,WindSpeedMPH,WindSpeedGustMPH,Humidity,HourlyPrecipIn,Conditions,Clouds,dailyrainin,SolarRadiationWatts/m^2,SoftwareType,DateUTC
2013-01-30 00:02:00,30.8,25.7,31.05,SE,136,4.0,11.0,81,0.00,,,0.12,0.00,VWS V14.00,2013-01-30 07:02:00,
2013-01-30 00:07:00,30.9,25.5,31.04,SE,143,4.0,7.0,80,0.00,,,0.00,0.00,VWS V14.00,2013-01-30 07:07:00,
2013-01-30 00:12:00,31.2,25.5,31.04,SE,125,7.0,7.0,79,0.00,,,0.00,0.00,VWS V14.00,2013-01-30 07:12:00,
2013-01-30 00:17:00,31.5,25.8,31.04,SE,133,3.0,10.0,79,0.00,,,0.00,0.00,VWS V14.00,2013-01-30 07:17:00,
2013-01-30 00:22:00,31.6,25.9,31.04,SE,138,2.0,5.0,79,0.00,,,0.00,0.00,VWS V14.00,2013-01-30 07:22:00,
2013-01-30 00:27:00,31.5,25.8,31.04,SE,137,0.0,5.0,79,0.00,,,0.00,0.00,VWS V14.00,2013-01-30 07:27:00,
2013-01-30 00:32:00,31.5,25.8,31.03,SE,132,6.0,6.0,79,0.00,,,0.00,0.00,VWS V14.00,2013-01-30 07:32:00,
2013-01-30 00:37:00,31.8,25.4,31.03,SSE,149,4.0,9.0,77,0.00,,,0.00,0.00,VWS V14.00,2013-01-30 07:37:00,
2013-01-30 00:42:00,32.1,25.7,31.03,SSE,147,1.0,9.0,77,0.00,,,0.00,0.00,VWS V14.00,2013-01-30 07:42:00,
2013-01-30 00:47:00,32.2,25.8,31.03,SE,146,3.0,9.0,77,0.00,,,0.00,0.00,VWS V14.00,2013-01-30 07:47:00,
2013-01-30 00:52:00,32.5,25.5,31.01,SE,133,2.0,6.0,75,0.00,,,0.00,0.00,VWS V14.00,2013-01-30 07:52:00,
2013-01-30 00:57:00,32.7,25.7,31.01,SE,137,4.0,6.0,75,0.00,,,0.00,0.00,VWS V14.00,2013-01-30 07:57:00,
2013-01-30 01:02:00,32.8,25.8,31.02,SSE,161,2.0,7.0,75,0.00,,,0.00,0.00,VWS V14.00,2013-01-30 08:02:00,
2013-01-30 01:07:00,32.9,25.9,31.00,SSE,161,2.0,3.0,75,0.00,,,0.00,0.00,VWS V14.00,2013-01-30 08:07:00,
2013-01-30 01:12:00,33.0,26.0,30.99,SE,146,6.0,7.0,75,0.00,,,0.00,0.00,VWS V14.00,2013-01-30 08:12:00,
2013-01-30 01:17:00,33.2,25.8,31.00,SE,144,5.0,9.0,74,0.00,,,0.00,0.00,VWS V14.00,2013-01-30 08:17:00,
2013-01-30 01:22:00,33.3,25.9,31.00,SSE,153,4.0,6.0,74,0.00,,,0.00,0.00,VWS V14.00,2013-01-30 08:22:00,
2013-01-30 01:27:00,33.4,26.0,31.00,SSE,155,3.0,6.0,74,0.00,,,0.00,0.00,VWS V14.00,2013-01-30 08:27:00,
2013-01-30 01:32:00,33.6,26.2,30.99,SE,140,3.0,7.0,74,0.00,,,0.00,0.00,VWS V14.00,2013-01-30 08:32:00,
2013-01-30 01:37:00,33.7,26.3,31.00,SE,139,0.0,3.0,74,0.00,,,0.00,0.00,VWS V14.00,2013-01-30 08:37:00,
2013-01-30 01:42:00,33.8,26.1,30.99,SE,144,2.0,6.0,73,0.00,,,0.00,0.00,VWS V14.00,2013-01-30 08:42:00,
2013-01-30 01:47:00,33.9,26.2,30.99,SE,143,3.0,6.0,73,0.00,,,0.00,0.00,VWS V14.00,2013-01-30 08:47:00,
2013-01-30 01:52:00,34.0,26.6,30.99,SE,143,0.0,3.0,74,0.00,,,0.00,0.00,VWS V14.00,2013-01-30 08:52:00,
2013-01-30 01:57:00,33.9,26.5,30.99,SE,143,2.0,3.0,74,0.00,,,0.00,0.00,VWS V14.00,2013-01-30 08:57:00,
2013-01-30 02:02:00,33.8,26.7,30.99,SE,143,0.0,3.0,75,0.00,,,0.00,0.00,VWS V14.00,2013-01-30 09:02:00,
2013-01-30 02:07:00,33.8,26.4,31.02,SE,142,0.0,2.0,74,0.00,,,0.00,0.00,VWS V14.00,2013-01-30 09:07:00,
2013-01-30 02:12:00,33.7,26.6,31.02,SE,143,0.0,2.0,75,0.00,,,0.00,0.00,VWS V14.00,2013-01-30 09:12:00,
2013-01-30 02:17:00,33.7,26.3,31.02,SE,143,0.0,2.0,74,0.00,,,0.00,0.00,VWS V14.00,2013-01-30 09:17:00,
2013-01-30 02:22:00,33.7,26.3,31.01,SE,142,1.0,3.0,74,0.00,,,0.00,0.00,VWS V14.00,2013-01-30 09:22:00,
2013-01-30 02:27:00,33.7,26.6,31.02,SE,143,0.0,3.0,75,0.00,,,0.00,0.00,VWS V14.00,2013-01-30 09:27:00,
2013-01-30 02:32:00,33.7,26.6,31.02,SE,143,3.0,3.0,75,0.00,,,0.00,0.00,VWS V14.00,2013-01-30 09:32:00,
2013-01-30 02:37:00,33.6,26.9,31.01,SE,140,2.0,5.0,76,0.00,,,0.00,0.00,VWS V14.00,2013-01-30 09:37:00,
2013-01-30 02:42:00,33.6,26.9,31.01,SSE,152,5.0,6.0,76,0.00,,,0.00,0.00,VWS V14.00,2013-01-30 09:42:00,
2013-01-30 02:47:00,33.5,26.8,31.01,SE,142,4.0,6.0,76,0.00,,,0.00,0.00,VWS V14.00,2013-01-30 09:47:00,
2013-01-30 02:52:00,33.7,27.0,31.01,SE,138,3.0,5.0,76,0.00,,,0.00,0.00,VWS V14.00,2013-01-30 09:52:00,
2013-01-30 02:57:00,33.8,26.7,31.01,South,186,6.0,6.0,75,0.00,,,0.00,0.00,VWS V14.00,2013-01-30 09:57:00,
2013-01-30 03:02:00,34.4,27.0,31.00,SE,144,10.0,11.0,74,0.00,,,0.00,0.00,VWS V14.00,2013-01-30 10:02:00,
2013-01-30 03:07:00,34.4,27.3,31.01,SE,132,3.0,8.0,75,0.00,,,0.00,0.00,VWS V14.00,2013-01-30 10:07:00,
2013-01-30 03:12:00,34.4,27.3,31.01,SE,144,0.0,8.0,75,0.00,,,0.00,0.00,VWS V14.00,2013-01-30 10:12:00,
2013-01-30 03:17:00,34.4,27.3,31.01,SE,144,1.0,8.0,75,0.00,,,0.00,0.00,VWS V14.00,2013-01-30 10:17:00,
2013-01-30 03:22:00,34.4,27.6,31.01,SE,144,0.0,3.0,76,0.00,,,0.00,0.00,VWS V14.00,2013-01-30 10:22:00,
2013-01-30 03:27:00,34.4,27.6,31.01,SE,144,0.0,3.0,76,0.00,,,0.00,0.00,VWS V14.00,2013-01-30 10:27:00,
2013-01-30 03:32:00,34.4,28.0,31.01,SE,144,0.0,3.0,77,0.00,,,0.00,0.00,VWS V14.00,2013-01-30 10:32:00,
2013-01-30 03:37:00,34.4,27.6,31.01,SE,144,0.0,2.0,76,0.00,,,0.00,0.00,VWS V14.00,2013-01-30 10:37:00,
2013-01-30 03:42:00,34.4,27.3,31.01,SE,144,2.0,4.0,75,0.00,,,0.00,0.00,VWS V14.00,2013-01-30 10:42:00,
2013-01-30 03:47:00,34.8,27.7,31.00,SE,144,0.0,4.0,75,0.00,,,0.00,0.00,VWS V14.00,2013-01-30 10:47:00,
2013-01-30 03:52:00,35.0,27.9,31.00,SE,144,2.0,4.0,75,0.00,,,0.00,0.00,VWS V14.00,2013-01-30 10:52:00,
2013-01-30 03:57:00,35.0,28.2,31.00,SE,144,0.0,4.0,76,0.00,,,0.00,0.00,VWS V14.00,2013-01-30 10:57:00,
2013-01-30 04:02:00,35.1,28.0,30.99,SE,142,2.0,8.0,75,0.00,,,0.00,0.00,VWS V14.00,2013-01-30 11:02:00,
2013-01-30 04:07:00,35.1,28.3,31.00,SE,142,0.0,3.0,76,0.00,,,0.00,0.00,VWS V14.00,2013-01-30 11:07:00,
2013-01-30 04:12:00,35.1,28.9,31.00,SE,137,1.0,4.0,78,0.00,,,0.00,0.00,VWS V14.00,2013-01-30 11:12:00,
2013-01-30 04:17:00,35.0,29.2,31.00,ESE,109,2.0,5.0,79,0.00,,,0.00,0.00,VWS V14.00,2013-01-30 11:17:00,
2013-01-30 04:22:00,35.0,29.2,31.00,ESE,113,2.0,6.0,79,0.00,,,0.00,0.00,VWS V14.00,2013-01-30 11:22:00,
2013-01-30 04:27:00,35.0,29.2,31.00,SSE,148,5.0,11.0,79,0.00,,,0.00,0.00,VWS V14.00,2013-01-30 11:27:00,
2013-01-30 04:32:00,35.0,29.2,31.00,ESE,118,2.0,11.0,79,0.00,,,0.00,0.00,VWS V14.00,2013-01-30 11:32:00,
2013-01-30 04:37:00,35.0,28.9,31.00,SE,136,4.0,5.0,78,0.00,,,0.00,0.00,VWS V14.00,2013-01-30 11:37:00,
2013-01-30 04:42:00,35.0,28.9,31.00,ESE,122,3.0,5.0,78,0.00,,,0.00,0.00,VWS V14.00,2013-01-30 11:42:00,
2013-01-30 04:47:00,35.1,28.9,30.99,ESE,113,0.0,5.0,78,0.00,,,0.00,0.00,VWS V14.00,2013-01-30 11:47:00,
2013-01-30 04:52:00,35.3,28.8,30.99,ESE,121,2.0,8.0,77,0.00,,,0.00,0.00,VWS V14.00,2013-01-30 11:52:00,
2013-01-30 04:57:00,35.6,28.1,31.00,SE,126,7.0,8.0,74,0.00,,,0.00,0.00,VWS V14.00,2013-01-30 11:57:00,
2013-01-30 05:02:00,36.1,28.0,31.00,SE,127,6.0,8.0,72,0.00,,,0.00,0.00,VWS V14.00,2013-01-30 12:02:00,
2013-01-30 05:07:00,36.5,28.4,30.99,SE,128,3.0,7.0,72,0.00,,,0.00,0.00,VWS V14.00,2013-01-30 12:07:00,
2013-01-30 05:12:00,36.6,28.4,30.98,SE,128,0.0,7.0,72,0.00,,,0.00,0.00,VWS V14.00,2013-01-30 12:12:00,
2013-01-30 05:17:00,36.7,27.9,30.98,ESE,123,3.0,7.0,70,0.00,,,0.00,0.00,VWS V14.00,2013-01-30 12:17:00,
2013-01-30 05:22:00,36.9,28.0,30.98,ESE,103,2.0,4.0,70,0.00,,,0.00,0.00,VWS V14.00,2013-01-30 12:22:00,
2013-01-30 05:27:00,37.0,28.1,30.98,ESE,103,2.0,4.0,70,0.00,,,0.00,0.00,VWS V14.00,2013-01-30 12:27:00,
2013-01-30 05:32:00,37.0,28.1,30.98,ESE,103,2.0,4.0,70,0.00,,,0.00,0.00,VWS V14.00,2013-01-30 12:32:00,
2013-01-30 05:37:00,37.0,28.1,30.99,ESE,102,0.0,2.0,70,0.00,,,0.00,0.00,VWS V14.00,2013-01-30 12:37:00,
2013-01-30 05:42:00,37.0,28.1,30.99,East,99,1.0,3.0,70,0.00,,,0.00,0.00,VWS V14.00,2013-01-30 12:42:00,
2013-01-30 05:47:00,37.0,28.8,30.99,East,99,0.0,3.0,72,0.00,,,0.00,0.00,VWS V14.00,2013-01-30 12:47:00,
2013-01-30 05:52:00,36.8,28.0,30.99,SE,132,3.0,5.0,70,0.00,,,0.00,0.00,VWS V14.00,2013-01-30 12:52:00,
2013-01-30 05:57:00,36.9,28.0,30.99,NNE,16,1.0,5.0,70,0.00,,,0.00,0.00,VWS V14.00,2013-01-30 12:57:00,
2013-01-30 06:02:00,37.0,28.1,30.99,NNE,15,0.0,5.0,70,0.00,,,0.00,0.00,VWS V14.00,2013-01-30 13:02:00,
2013-01-30 06:07:00,36.9,28.7,30.99,North,5,1.0,3.0,72,0.00,,,0.00,0.00,VWS V14.00,2013-01-30 13:07:00,
2013-01-30 06:12:00,36.5,28.4,30.99,North,360,2.0,3.0,72,0.00,,,0.00,0.00,VWS V14.00,2013-01-30 13:12:00,
2013-01-30 06:17:00,36.1,28.3,30.99,North,360,0.0,3.0,73,0.00,,,0.00,0.00,VWS V14.00,2013-01-30 13:17:00,
2013-01-30 06:22:00,35.8,28.3,30.99,North,5,1.0,2.0,74,0.00,,,0.00,0.00,VWS V14.00,2013-01-30 13:22:00,
2013-01-30 06:27:00,35.4,28.3,30.99,North,5,0.0,2.0,75,0.00,,,0.00,0.00,VWS V14.00,2013-01-30 13:27:00,
2013-01-30 06:32:00,35.1,28.0,31.01,West,280,0.0,4.0,75,0.00,,,0.00,0.00,VWS V14.00,2013-01-30 13:32:00,
2013-01-30 06:37:00,34.7,27.9,31.01,West,280,0.0,0.0,76,0.00,,,0.00,0.00,VWS V14.00,2013-01-30 13:37:00,
2013-01-30 06:42:00,34.4,28.0,31.02,West,280,0.0,0.0,77,0.00,,,0.00,0.00,VWS V14.00,2013-01-30 13:42:00,
2013-01-30 06:47:00,34.2,28.1,31.02,West,280,0.0,1.0,78,0.00,,,0.00,0.00,VWS V14.00,2013-01-30 13:47:00,
2013-01-30 06:52:00,34.1,28.0,31.02,West,280,1.0,3.0,78,0.00,,,0.00,0.00,VWS V14.00,2013-01-30 13:52:00,
2013-01-30 06:57:00,34.2,28.4,31.02,NW,305,0.0,3.0,79,0.00,,,0.00,0.00,VWS V14.00,2013-01-30 13:57:00,
2013-01-30 07:02:00,34.4,28.6,31.02,NNW,327,8.0,8.0,79,0.00,,,0.00,0.00,VWS V14.00,2013-01-30 14:02:00,
2013-01-30 07:07:00,34.4,28.3,31.02,NNE,24,3.0,3.0,78,0.00,,,0.00,0.00,VWS V14.00,2013-01-30 14:07:00,
2013-01-30 07:12:00,33.9,27.8,31.02,NNE,33,0.0,10.0,78,0.00,,,0.00,0.00,VWS V14.00,2013-01-30 14:12:00,
2013-01-30 07:17:00,33.6,27.5,31.02,NNE,33,0.0,10.0,78,0.00,,,0.00,0.00,VWS V14.00,2013-01-30 14:17:00,
2013-01-30 07:23:00,33.0,26.9,31.02,NNE,20,2.0,12.0,78,0.00,,,0.00,0.00,VWS V14.00,2013-01-30 14:23:00,
2013-01-30 07:28:00,32.6,26.8,31.03,North,350,5.0,12.0,79,0.00,,,0.00,0.00,VWS V14.00,2013-01-30 14:28:00,
2013-01-30 07:33:00,32.3,26.5,31.03,North,355,0.0,12.0,79,0.00,,,0.00,0.00,VWS V14.00,2013-01-30 14:33:00,
2013-01-30 07:38:00,32.1,26.6,31.03,North,355,1.0,2.0,80,0.00,,,0.00,0.00,VWS V14.00,2013-01-30 14:38:00,
2013-01-30 07:43:00,32.0,26.5,31.03,North,5,0.0,6.0,80,0.00,,,0.00,0.00,VWS V14.00,2013-01-30 14:43:00,
2013-01-30 07:48:00,32.1,26.9,31.04,WNW,286,7.0,7.0,81,0.00,,,0.00,0.00,VWS V14.00,2013-01-30 14:48:00,
2013-01-30 07:53:00,31.6,26.1,31.04,WNW,298,2.0,6.0,80,0.00,,,0.00,0.00,VWS V14.00,2013-01-30 14:53:00,
2013-01-30 07:58:00,31.3,26.5,31.03,WNW,298,3.0,6.0,82,0.00,,,0.00,0.00,VWS V14.00,2013-01-30 14:58:00,
2013-01-30 08:03:00,31.3,26.8,31.04,WNW,298,0.0,6.0,83,0.00,,,0.00,0.00,VWS V14.00,2013-01-30 15:03:00,
2013-01-30 08:08:00,31.5,26.6,31.03,NNE,18,2.0,5.0,82,0.00,,,0.00,0.00,VWS V14.00,2013-01-30 15:08:00,
2013-01-30 08:13:00,31.5,26.6,31.03,West,275,9.0,9.0,82,0.00,,,0.00,0.00,VWS V14.00,2013-01-30 15:13:00,
2013-01-30 08:18:00,31.3,26.5,31.04,WSW,250,0.0,10.0,82,0.00,,,0.00,0.00,VWS V14.00,2013-01-30 15:18:00,
2013-01-30 08:23:00,31.2,26.4,31.04,WSW,249,0.0,0.0,82,0.00,,,0.00,5.00,VWS V14.00,2013-01-30 15:23:00,
2013-01-30 08:28:00,31.2,26.6,31.04,WSW,249,0.0,1.0,83,0.00,,,0.00,5.00,VWS V14.00,2013-01-30 15:28:00,
2013-01-30 08:33:00,31.1,26.5,31.05,WSW,254,0.0,3.0,83,0.00,,,0.00,5.00,VWS V14.00,2013-01-30 15:33:00,
2013-01-30 08:38:00,31.1,26.5,31.05,WSW,254,1.0,5.0,83,0.00,,,0.00,7.00,VWS V14.00,2013-01-30 15:38:00,
2013-01-30 08:43:00,31.0,26.5,31.05,WSW,254,2.0,5.0,83,0.00,,,0.00,11.00,VWS V14.00,2013-01-30 15:43:00,
2013-01-30 08:48:00,31.0,26.5,31.05,WSW,254,0.0,5.0,83,0.00,,,0.00,12.00,VWS V14.00,2013-01-30 15:48:00,
2013-01-30 08:53:00,30.9,26.6,31.05,South,186,2.0,5.0,84,0.00,,,0.00,23.00,VWS V14.00,2013-01-30 15:53:00,
2013-01-30 08:58:00,30.8,26.5,31.05,South,185,3.0,5.0,84,0.00,,,0.00,30.00,VWS V14.00,2013-01-30 15:58:00,
2013-01-30 09:03:00,30.8,26.8,31.05,South,184,1.0,5.0,85,0.00,,,0.00,30.00,VWS V14.00,2013-01-30 16:03:00,
2013-01-30 09:08:00,30.8,26.8,31.04,South,185,2.0,2.0,85,0.00,,,0.00,33.00,VWS V14.00,2013-01-30 16:08:00,
2013-01-30 09:13:00,30.9,26.9,31.04,South,184,2.0,2.0,85,0.00,,,0.00,39.00,VWS V14.00,2013-01-30 16:13:00,
2013-01-30 09:18:00,31.1,27.4,31.04,South,183,2.0,3.0,86,0.00,,,0.00,37.00,VWS V14.00,2013-01-30 16:18:00,
2013-01-30 09:23:00,31.5,27.8,31.04,South,183,0.0,3.0,86,0.00,,,0.00,40.00,VWS V14.00,2013-01-30 16:23:00,
2013-01-30 09:28:00,32.1,28.1,31.04,South,183,4.0,4.0,85,0.00,,,0.00,46.00,VWS V14.00,2013-01-30 16:28:00,
2013-01-30 09:33:00,33.0,28.4,31.03,SSE,153,3.0,7.0,83,0.00,,,0.00,49.00,VWS V14.00,2013-01-30 16:33:00,
2013-01-30 09:38:00,34.0,28.5,31.03,South,190,3.0,6.0,80,0.00,,,0.00,49.00,VWS V14.00,2013-01-30 16:38:00,
2013-01-30 09:43:00,35.1,28.0,31.02,North,351,2.0,9.0,75,0.00,,,0.00,54.00,VWS V14.00,2013-01-30 16:43:00,
2013-01-30 09:48:00,36.1,28.0,31.02,SE,140,3.0,9.0,72,0.00,,,0.00,62.00,VWS V14.00,2013-01-30 16:48:00,
2013-01-30 09:53:00,36.9,28.7,31.01,SSE,160,2.0,5.0,72,0.00,,,0.00,72.00,VWS V14.00,2013-01-30 16:53:00,
2013-01-30 09:58:00,37.6,28.7,31.01,SSE,159,0.0,5.0,70,0.00,,,0.00,70.00,VWS V14.00,2013-01-30 16:58:00,
2013-01-30 10:03:00,38.0,29.5,31.01,SSE,159,0.0,5.0,71,0.00,,,0.00,69.00,VWS V14.00,2013-01-30 17:03:00,
2013-01-30 10:08:00,38.1,29.5,31.01,SSE,159,3.0,3.0,71,0.00,,,0.00,88.00,VWS V14.00,2013-01-30 17:08:00,
2013-01-30 10:13:00,38.0,29.8,31.01,SSE,157,2.0,4.0,72,0.00,,,0.00,88.00,VWS V14.00,2013-01-30 17:13:00,
2013-01-30 10:18:00,38.0,29.8,31.01,ESE,106,0.0,4.0,72,0.00,,,0.00,76.00,VWS V14.00,2013-01-30 17:18:00,
2013-01-30 10:23:00,37.9,30.0,31.01,SSE,164,4.0,7.0,73,0.00,,,0.00,72.00,VWS V14.00,2013-01-30 17:23:00,
2013-01-30 10:28:00,37.7,29.8,31.00,SE,126,5.0,9.0,73,0.00,,,0.00,93.00,VWS V14.00,2013-01-30 17:28:00,
2013-01-30 10:33:00,37.7,29.5,31.01,SE,140,3.0,9.0,72,0.00,,,0.00,88.00,VWS V14.00,2013-01-30 17:33:00,
2013-01-30 10:38:00,37.7,29.8,31.01,SE,138,3.0,3.0,73,0.00,,,0.00,113.00,VWS V14.00,2013-01-30 17:38:00,
2013-01-30 10:43:00,37.7,29.8,31.01,SE,124,2.0,4.0,73,0.00,,,0.00,120.00,VWS V14.00,2013-01-30 17:43:00,
2013-01-30 10:48:00,37.8,29.6,31.00,ESE,112,3.0,9.0,72,0.00,,,0.00,134.00,VWS V14.00,2013-01-30 17:48:00,
2013-01-30 10:53:00,38.0,29.5,31.01,ESE,121,3.0,6.0,71,0.00,,,0.00,142.00,VWS V14.00,2013-01-30 17:53:00,
2013-01-30 10:58:00,38.2,29.6,31.02,SE,132,4.0,6.0,71,0.00,,,0.00,123.00,VWS V14.00,2013-01-30 17:58:00,
2013-01-30 11:03:00,38.4,29.8,31.01,SE,142,1.0,9.0,71,0.00,,,0.00,139.00,VWS V14.00,2013-01-30 18:03:00,
2013-01-30 11:08:00,38.6,29.7,31.01,SE,142,0.0,4.0,70,0.00,,,0.00,160.00,VWS V14.00,2013-01-30 18:08:00,
2013-01-30 11:13:00,38.8,30.2,31.01,SE,142,2.0,4.0,71,0.00,,,0.00,165.00,VWS V14.00,2013-01-30 18:13:00,
2013-01-30 11:18:00,38.9,30.3,31.01,SE,142,0.0,4.0,71,0.00,,,0.00,155.00,VWS V14.00,2013-01-30 18:18:00,
2013-01-30 11:23:00,39.2,29.9,31.01,SE,129,0.0,5.0,69,0.00,,,0.00,151.00,VWS V14.00,2013-01-30 18:23:00,
2013-01-30 11:28:00,39.6,28.1,31.00,NW,315,10.0,20.0,63,0.00,,,0.00,137.00,VWS V14.00,2013-01-30 18:28:00,
2013-01-30 11:33:00,40.2,29.8,31.01,SW,224,2.0,20.0,66,0.00,,,0.00,141.00,VWS V14.00,2013-01-30 18:33:00,
2013-01-30 11:38:00,40.3,29.9,31.01,SE,140,4.0,7.0,66,0.00,,,0.00,125.00,VWS V14.00,2013-01-30 18:38:00,
2013-01-30 11:43:00,40.2,29.8,31.01,SE,142,2.0,7.0,66,0.00,,,0.00,121.00,VWS V14.00,2013-01-30 18:43:00,
2013-01-30 11:48:00,40.1,30.0,31.00,SSE,151,5.0,7.0,67,0.00,,,0.00,144.00,VWS V14.00,2013-01-30 18:48:00,
2013-01-30 11:53:00,40.1,29.7,31.01,SSE,164,4.0,6.0,66,0.00,,,0.00,146.00,VWS V14.00,2013-01-30 18:53:00,
2013-01-30 11:58:00,40.0,29.9,31.01,SSE,153,4.0,7.0,67,0.00,,,0.00,153.00,VWS V14.00,2013-01-30 18:58:00,
2013-01-30 12:03:00,39.8,30.1,31.00,SE,138,3.0,9.0,68,0.00,,,0.00,165.00,VWS V14.00,2013-01-30 19:03:00,
2013-01-30 12:08:00,39.7,30.0,31.00,SSE,159,5.0,7.0,68,0.00,,,0.00,199.00,VWS V14.00,2013-01-30 19:08:00,
2013-01-30 12:13:00,39.8,29.8,30.99,SSE,147,5.0,11.0,67,0.00,,,0.00,200.00,VWS V14.00,2013-01-30 19:13:00,
2013-01-30 12:18:00,39.8,30.1,31.00,SE,136,0.0,2.0,68,0.00,,,0.00,200.00,VWS V14.00,2013-01-30 19:18:00,
2013-01-30 12:23:00,39.8,30.5,31.00,SE,136,4.0,5.0,69,0.00,,,0.00,209.00,VWS V14.00,2013-01-30 19:23:00,
2013-01-30 12:28:00,39.9,29.9,31.00,ESE,111,5.0,7.0,67,0.00,,,0.00,207.00,VWS V14.00,2013-01-30 19:28:00,
2013-01-30 12:33:00,40.0,30.3,31.00,SSE,149,4.0,5.0,68,0.00,,,0.00,216.00,VWS V14.00,2013-01-30 19:33:00,
2013-01-30 12:38:00,40.0,30.3,30.99,SE,145,7.0,10.0,68,0.00,,,0.00,209.00,VWS V14.00,2013-01-30 19:38:00,
2013-01-30 12:43:00,40.0,30.3,31.00,SSE,152,4.0,10.0,68,0.00,,,0.00,195.00,VWS V14.00,2013-01-30 19:43:00,
2013-01-30 12:48:00,40.1,29.7,31.00,SSE,152,7.0,7.0,66,0.00,,,0.00,188.00,VWS V14.00,2013-01-30 19:48:00,
2013-01-30 12:53:00,40.2,29.8,30.99,SE,128,1.0,12.0,66,0.00,,,0.00,171.00,VWS V14.00,2013-01-30 19:53:00,
2013-01-30 12:58:00,40.3,29.9,30.99,SSE,153,8.0,12.0,66,0.00,,,0.00,178.00,VWS V14.00,2013-01-30 19:58:00,
2013-01-30 13:03:00,40.2,30.1,30.98,SSE,147,8.0,10.0,67,0.00,,,0.00,183.00,VWS V14.00,2013-01-30 20:03:00,
2013-01-30 13:08:00,40.2,30.5,30.98,SSE,167,9.0,10.0,68,0.00,,,0.00,174.00,VWS V14.00,2013-01-30 20:08:00,
2013-01-30 13:13:00,40.1,30.0,30.98,SSE,159,10.0,13.0,67,0.00,,,0.00,169.00,VWS V14.00,2013-01-30 20:13:00,
2013-01-30 13:18:00,40.1,30.4,30.98,SSE,157,6.0,6.0,68,0.00,,,0.00,165.00,VWS V14.00,2013-01-30 20:18:00,
2013-01-30 13:23:00,40.1,30.4,30.98,SSE,157,3.0,12.0,68,0.00,,,0.00,171.00,VWS V14.00,2013-01-30 20:23:00,
2013-01-30 13:28:00,40.1,30.4,30.98,SSE,153,7.0,13.0,68,0.00,,,0.00,174.00,VWS V14.00,2013-01-30 20:28:00,
2013-01-30 13:33:00,40.0,30.7,30.98,SSE,167,6.0,8.0,69,0.00,,,0.00,185.00,VWS V14.00,2013-01-30 20:33:00,
2013-01-30 13:38:00,40.0,29.6,30.98,SSW,194,7.0,24.0,66,0.00,,,0.00,186.00,VWS V14.00,2013-01-30 20:38:00,
2013-01-30 13:43:00,40.3,30.6,30.98,SSE,161,9.0,24.0,68,0.00,,,0.00,179.00,VWS V14.00,2013-01-30 20:43:00,
2013-01-30 13:48:00,40.3,30.2,30.98,SSE,165,3.0,3.0,67,0.00,,,0.00,162.00,VWS V14.00,2013-01-30 20:48:00,
2013-01-30 13:53:00,40.3,29.9,30.98,SSE,150,6.0,12.0,66,0.00,,,0.00,156.00,VWS V14.00,2013-01-30 20:53:00,
2013-01-30 13:58:00,40.3,30.6,30.98,SSE,161,5.0,12.0,68,0.00,,,0.00,167.00,VWS V14.00,2013-01-30 20:58:00,
2013-01-30 14:03:00,40.3,30.2,30.98,SSE,157,4.0,4.0,67,0.00,,,0.00,171.00,VWS V14.00,2013-01-30 21:03:00,
2013-01-30 14:08:00,40.4,30.3,30.99,SSE,153,0.0,5.0,67,0.00,,,0.00,188.00,VWS V14.00,2013-01-30 21:08:00,
2013-01-30 14:13:00,40.5,30.8,30.98,SSE,153,3.0,5.0,68,0.00,,,0.00,218.00,VWS V14.00,2013-01-30 21:13:00,
2013-01-30 14:18:00,40.6,30.5,30.99,SSE,153,0.0,3.0,67,0.00,,,0.00,202.00,VWS V14.00,2013-01-30 21:18:00,
2013-01-30 14:23:00,40.7,30.6,30.99,SSE,155,1.0,6.0,67,0.00,,,0.00,206.00,VWS V14.00,2013-01-30 21:23:00,
2013-01-30 14:28:00,40.9,30.8,30.99,SSE,155,0.0,6.0,67,0.00,,,0.00,230.00,VWS V14.00,2013-01-30 21:28:00,
2013-01-30 14:33:00,41.0,30.9,30.99,SSE,155,1.0,1.0,67,0.00,,,0.00,236.00,VWS V14.00,2013-01-30 21:33:00,
2013-01-30 14:38:00,41.2,30.0,31.00,SSE,158,0.0,4.0,64,0.00,,,0.00,246.00,VWS V14.00,2013-01-30 21:38:00,
2013-01-30 14:43:00,41.4,29.8,30.99,SSE,157,2.0,4.0,63,0.00,,,0.00,232.00,VWS V14.00,2013-01-30 21:43:00,
2013-01-30 14:48:00,41.6,30.0,30.98,South,171,2.0,3.0,63,0.00,,,0.00,214.00,VWS V14.00,2013-01-30 21:48:00,
2013-01-30 14:53:00,41.7,29.7,30.98,SSE,152,4.0,9.0,62,0.00,,,0.00,171.00,VWS V14.00,2013-01-30 21:53:00,
2013-01-30 14:58:00,41.7,30.0,30.98,SE,141,0.0,9.0,63,0.00,,,0.00,158.00,VWS V14.00,2013-01-30 21:58:00,
2013-01-30 15:03:00,41.7,30.4,30.98,West,276,3.0,4.0,64,0.00,,,0.00,121.00,VWS V14.00,2013-01-30 22:03:00,
2013-01-30 15:08:00,41.6,30.7,30.98,SSW,205,2.0,6.0,65,0.00,,,0.00,118.00,VWS V14.00,2013-01-30 22:08:00,
2013-01-30 15:13:00,41.5,29.9,30.98,South,172,2.0,6.0,63,0.00,,,0.00,135.00,VWS V14.00,2013-01-30 22:13:00,
2013-01-30 15:18:00,41.4,30.5,30.99,South,172,1.0,1.0,65,0.00,,,0.00,127.00,VWS V14.00,2013-01-30 22:18:00,
2013-01-30 15:23:00,41.3,30.8,30.98,South,172,1.0,3.0,66,0.00,,,0.00,128.00,VWS V14.00,2013-01-30 22:23:00,
2013-01-30 15:28:00,41.2,30.3,30.98,SE,146,0.0,4.0,65,0.00,,,0.00,142.00,VWS V14.00,2013-01-30 22:28:00,
2013-01-30 15:33:00,41.2,30.7,30.98,SE,146,0.0,0.0,66,0.00,,,0.00,125.00,VWS V14.00,2013-01-30 22:33:00,
2013-01-30 15:38:00,41.1,30.6,30.98,SE,146,0.0,0.0,66,0.00,,,0.00,127.00,VWS V14.00,2013-01-30 22:38:00,
2013-01-30 15:43:00,41.1,30.6,30.98,SE,146,0.0,2.0,66,0.00,,,0.00,109.00,VWS V14.00,2013-01-30 22:43:00,
2013-01-30 15:48:00,41.0,31.3,30.99,SE,146,0.0,0.0,68,0.00,,,0.00,98.00,VWS V14.00,2013-01-30 22:48:00,
2013-01-30 15:53:00,40.9,31.5,30.98,SE,145,2.0,3.0,69,0.00,,,0.00,79.00,VWS V14.00,2013-01-30 22:53:00,
2013-01-30 15:58:00,40.6,30.9,30.99,SE,145,0.0,3.0,68,0.00,,,0.00,62.00,VWS V14.00,2013-01-30 22:58:00,
2013-01-30 16:03:00,40.5,31.1,30.99,SE,146,3.0,3.0,69,0.00,,,0.00,47.00,VWS V14.00,2013-01-30 23:03:00,
2013-01-30 16:08:00,40.2,30.9,30.99,SE,146,0.0,3.0,69,0.00,,,0.00,46.00,VWS V14.00,2013-01-30 23:08:00,
2013-01-30 16:13:00,39.9,31.3,30.99,SE,146,0.0,3.0,71,0.00,,,0.00,54.00,VWS V14.00,2013-01-30 23:13:00,
2013-01-30 16:18:00,39.8,31.2,30.99,SE,146,0.0,0.0,71,0.00,,,0.00,49.00,VWS V14.00,2013-01-30 23:18:00,
2013-01-30 16:23:00,39.7,30.4,31.00,SE,145,0.0,2.0,69,0.00,,,0.00,35.00,VWS V14.00,2013-01-30 23:23:00,
2013-01-30 16:28:00,39.7,31.1,31.00,SE,146,0.0,2.0,71,0.00,,,0.00,35.00,VWS V14.00,2013-01-30 23:28:00,
2013-01-30 16:33:00,39.6,31.0,31.00,SE,145,1.0,1.0,71,0.00,,,0.00,32.00,VWS V14.00,2013-01-30 23:33:00,
2013-01-30 16:38:00,39.5,30.9,30.99,SE,146,2.0,3.0,71,0.00,,,0.00,30.00,VWS V14.00,2013-01-30 23:38:00,
2013-01-30 16:43:00,39.3,30.7,31.01,SE,146,2.0,3.0,71,0.00,,,0.00,28.00,VWS V14.00,2013-01-30 23:43:00,
2013-01-30 16:48:00,39.3,31.0,31.01,SE,146,0.0,0.0,72,0.01,,,0.01,25.00,VWS V14.00,2013-01-30 23:48:00,
2013-01-30 16:53:00,39.2,31.0,31.01,SE,146,1.0,4.0,72,0.01,,,0.01,18.00,VWS V14.00,2013-01-30 23:53:00,
2013-01-30 16:58:00,39.1,29.5,31.01,NNE,30,0.0,7.0,68,0.01,,,0.01,14.00,VWS V14.00,2013-01-30 23:58:00,
2013-01-30 17:03:00,39.4,30.1,31.00,SSE,167,0.0,1.0,69,0.01,,,0.01,12.00,VWS V14.00,2013-01-31 00:03:00,
2013-01-30 17:08:00,39.5,30.5,31.00,SSE,157,2.0,3.0,70,0.01,,,0.01,11.00,VWS V14.00,2013-01-31 00:08:00,
2013-01-30 17:13:00,39.4,31.1,31.00,SSE,155,1.0,3.0,72,0.01,,,0.01,11.00,VWS V14.00,2013-01-31 00:13:00,
2013-01-30 17:18:00,39.4,30.8,31.00,SSE,155,0.0,0.0,71,0.01,,,0.01,7.00,VWS V14.00,2013-01-31 00:18:00,
2013-01-30 17:23:00,39.3,30.7,31.01,SSE,155,0.0,0.0,71,0.01,,,0.01,5.00,VWS V14.00,2013-01-31 00:23:00,
2013-01-30 17:28:00,39.2,30.2,31.01,SSE,155,1.0,2.0,70,0.01,,,0.01,0.00,VWS V14.00,2013-01-31 00:28:00,
2013-01-30 17:33:00,39.2,30.2,31.01,SSE,159,0.0,0.0,70,0.01,,,0.01,0.00,VWS V14.00,2013-01-31 00:33:00,
2013-01-30 17:38:00,39.3,30.7,31.01,SW,217,0.0,6.0,71,0.01,,,0.01,0.00,VWS V14.00,2013-01-31 00:38:00,
2013-01-30 17:43:00,39.3,30.0,31.01,SSW,201,0.0,6.0,69,0.01,,,0.01,0.00,VWS V14.00,2013-01-31 00:43:00,
2013-01-30 17:48:00,39.4,29.7,31.01,South,182,7.0,10.0,68,0.00,,,0.01,0.00,VWS V14.00,2013-01-31 00:48:00,
2013-01-30 17:53:00,39.8,29.0,31.00,SSW,197,3.0,11.0,65,0.00,,,0.01,0.00,VWS V14.00,2013-01-31 00:53:00,
2013-01-30 17:58:00,40.0,29.9,31.01,West,273,3.0,11.0,67,0.00,,,0.01,0.00,VWS V14.00,2013-01-31 00:58:00,
2013-01-30 18:03:00,40.2,29.8,31.02,WSW,257,0.0,0.0,66,0.00,,,0.01,0.00,VWS V14.00,2013-01-31 01:03:00,
2013-01-30 18:08:00,40.4,29.6,31.03,SE,128,0.0,2.0,65,0.00,,,0.01,0.00,VWS V14.00,2013-01-31 01:08:00,
2013-01-30 18:13:00,40.4,30.3,31.03,SE,128,0.0,3.0,67,0.00,,,0.01,0.00,VWS V14.00,2013-01-31 01:13:00,
2013-01-30 18:18:00,40.3,30.6,31.03,SE,128,0.0,0.0,68,0.00,,,0.01,0.00,VWS V14.00,2013-01-31 01:18:00,
2013-01-30 18:23:00,40.1,30.8,31.03,SE,128,0.0,1.0,69,0.00,,,0.01,0.00,VWS V14.00,2013-01-31 01:23:00,
2013-01-30 18:28:00,39.8,30.1,31.03,SE,128,1.0,3.0,68,0.00,,,0.01,0.00,VWS V14.00,2013-01-31 01:28:00,
2013-01-30 18:33:00,39.6,29.6,31.03,South,181,2.0,4.0,67,0.00,,,0.01,0.00,VWS V14.00,2013-01-31 01:33:00,
2013-01-30 18:38:00,39.7,29.7,31.03,ENE,78,4.0,13.0,67,0.00,,,0.01,0.00,VWS V14.00,2013-01-31 01:38:00,
2013-01-30 18:43:00,39.8,30.5,31.04,WNW,298,4.0,13.0,69,0.00,,,0.01,0.00,VWS V14.00,2013-01-31 01:43:00,
2013-01-30 18:48:00,39.9,29.9,31.03,WSW,250,4.0,4.0,67,0.00,,,0.01,0.00,VWS V14.00,2013-01-31 01:48:00,
2013-01-30 18:53:00,40.0,29.9,31.04,West,259,3.0,8.0,67,0.00,,,0.01,0.00,VWS V14.00,2013-01-31 01:53:00,
2013-01-30 18:58:00,40.0,30.3,31.04,NW,304,2.0,8.0,68,0.00,,,0.01,0.00,VWS V14.00,2013-01-31 01:58:00,
2013-01-30 19:03:00,39.9,30.6,31.03,WNW,299,2.0,2.0,69,0.00,,,0.01,0.00,VWS V14.00,2013-01-31 02:03:00,
2013-01-30 19:08:00,39.7,30.4,31.06,NW,309,4.0,6.0,69,0.00,,,0.01,0.00,VWS V14.00,2013-01-31 02:08:00,
2013-01-30 19:13:00,39.6,30.3,31.06,NW,305,4.0,13.0,69,0.00,,,0.01,0.00,VWS V14.00,2013-01-31 02:13:00,
2013-01-30 19:18:00,39.5,30.5,31.06,NW,317,2.0,2.0,70,0.00,,,0.01,0.00,VWS V14.00,2013-01-31 02:18:00,
2013-01-30 19:23:00,39.4,30.1,31.06,NNW,340,4.0,4.0,69,0.00,,,0.01,0.00,VWS V14.00,2013-01-31 02:23:00,
2013-01-30 19:28:00,39.4,30.4,31.06,WNW,297,5.0,11.0,70,0.00,,,0.01,0.00,VWS V14.00,2013-01-31 02:28:00,
2013-01-30 19:33:00,39.6,30.3,31.06,WNW,297,7.0,7.0,69,0.00,,,0.01,0.00,VWS V14.00,2013-01-31 02:33:00,
2013-01-30 19:38:00,39.5,30.9,31.06,WNW,289,5.0,10.0,71,0.00,,,0.01,0.00,VWS V14.00,2013-01-31 02:38:00,
2013-01-30 19:43:00,39.2,30.6,31.06,WNW,288,3.0,10.0,71,0.00,,,0.01,0.00,VWS V14.00,2013-01-31 02:43:00,
2013-01-30 19:48:00,38.9,30.7,31.07,WNW,288,2.0,2.0,72,0.00,,,0.01,0.00,VWS V14.00,2013-01-31 02:48:00,
2013-01-30 19:53:00,38.8,30.9,31.07,WNW,288,0.0,2.0,73,0.00,,,0.01,0.00,VWS V14.00,2013-01-31 02:53:00,
2013-01-30 19:58:00,38.6,30.7,31.07,WNW,286,2.0,3.0,73,0.00,,,0.01,0.00,VWS V14.00,2013-01-31 02:58:00,
2013-01-30 20:03:00,38.5,30.3,31.07,WNW,286,0.0,0.0,72,0.00,,,0.01,0.00,VWS V14.00,2013-01-31 03:03:00,
2013-01-30 20:08:00,38.4,30.2,31.08,WNW,286,0.0,2.0,72,0.00,,,0.01,0.00,VWS V14.00,2013-01-31 03:08:00,
2013-01-30 20:13:00,38.3,30.4,31.08,South,189,2.0,4.0,73,0.00,,,0.01,0.00,VWS V14.00,2013-01-31 03:13:00,
2013-01-30 20:18:00,38.2,30.0,31.08,South,188,2.0,2.0,72,0.00,,,0.01,0.00,VWS V14.00,2013-01-31 03:18:00,
2013-01-30 20:23:00,38.2,29.6,31.08,South,188,0.0,2.0,71,0.00,,,0.01,0.00,VWS V14.00,2013-01-31 03:23:00,
2013-01-30 20:28:00,38.2,30.3,31.08,South,187,1.0,5.0,73,0.00,,,0.01,0.00,VWS V14.00,2013-01-31 03:28:00,
2013-01-30 20:33:00,38.1,30.6,31.08,South,187,0.0,0.0,74,0.00,,,0.01,0.00,VWS V14.00,2013-01-31 03:33:00,
2013-01-30 20:38:00,38.0,30.5,31.08,South,187,0.0,1.0,74,0.00,,,0.01,0.00,VWS V14.00,2013-01-31 03:38:00,
2013-01-30 20:43:00,37.7,30.5,31.08,SSE,168,3.0,5.0,75,0.00,,,0.01,0.00,VWS V14.00,2013-01-31 03:43:00,
2013-01-30 20:48:00,37.6,30.4,31.08,SSE,156,3.0,4.0,75,0.00,,,0.01,0.00,VWS V14.00,2013-01-31 03:48:00,
2013-01-30 20:53:00,37.6,30.4,31.08,SSE,161,2.0,5.0,75,0.00,,,0.01,0.00,VWS V14.00,2013-01-31 03:53:00,
2013-01-30 20:58:00,37.6,30.4,31.08,SSE,157,1.0,6.0,75,0.00,,,0.01,0.00,VWS V14.00,2013-01-31 03:58:00,
2013-01-30 21:03:00,37.6,30.1,31.08,SSE,152,2.0,2.0,74,0.00,,,0.01,0.00,VWS V14.00,2013-01-31 04:03:00,
2013-01-30 21:08:00,37.7,30.2,31.05,SSE,152,3.0,6.0,74,0.00,,,0.01,0.00,VWS V14.00,2013-01-31 04:08:00,
2013-01-30 21:13:00,37.9,30.4,31.04,SE,146,3.0,6.0,74,0.00,,,0.01,0.00,VWS V14.00,2013-01-31 04:13:00,
2013-01-30 21:18:00,38.0,30.5,31.05,SSE,148,4.0,5.0,74,0.00,,,0.01,0.00,VWS V14.00,2013-01-31 04:18:00,
2013-01-30 21:23:00,38.0,30.5,31.05,SSE,148,2.0,5.0,74,0.00,,,0.01,0.00,VWS V14.00,2013-01-31 04:23:00,
2013-01-30 21:28:00,37.9,30.7,31.05,SSE,148,0.0,5.0,75,0.00,,,0.01,0.00,VWS V14.00,2013-01-31 04:28:00,
2013-01-30 21:33:00,37.8,30.6,31.05,SSE,148,0.0,0.0,75,0.00,,,0.01,0.00,VWS V14.00,2013-01-31 04:33:00,
2013-01-30 21:38:00,37.7,30.5,31.05,SSE,148,0.0,0.0,75,0.00,,,0.01,0.00,VWS V14.00,2013-01-31 04:38:00,
2013-01-30 21:43:00,37.7,30.5,31.06,SSE,148,2.0,2.0,75,0.00,,,0.01,0.00,VWS V14.00,2013-01-31 04:43:00,
2013-01-30 21:48:00,37.7,30.5,31.05,SSE,148,2.0,2.0,75,0.00,,,0.01,0.00,VWS V14.00,2013-01-31 04:48:00,
2013-01-30 21:53:00,37.7,30.5,31.06,SSE,148,1.0,4.0,75,0.00,,,0.01,0.00,VWS V14.00,2013-01-31 04:53:00,
2013-01-30 21:58:00,37.7,30.5,31.05,SSE,148,3.0,6.0,75,0.00,,,0.01,0.00,VWS V14.00,2013-01-31 04:58:00,
2013-01-30 22:00:00,37.7,30.2,31.05,SSE,148,3.0,6.0,74,0.00,,,0.01,0.00,VWS V14.00,2013-01-31 05:00:00,
2013-01-30 22:01:00,37.7,30.5,31.06,SSE,148,2.0,6.0,75,0.00,,,0.01,0.00,VWS V14.00,2013-01-31 05:01:00,
2013-01-30 22:06:00,37.7,30.5,31.06,SSE,148,1.0,3.0,75,0.00,,,0.01,0.00,VWS V14.00,2013-01-31 05:06:00,
2013-01-30 22:11:00,37.5,30.3,31.06,SSE,148,3.0,5.0,75,0.00,,,0.01,0.00,VWS V14.00,2013-01-31 05:11:00,
2013-01-30 22:16:00,37.5,30.3,31.06,SSE,148,0.0,5.0,75,0.00,,,0.01,0.00,VWS V14.00,2013-01-31 05:16:00,
2013-01-30 22:21:00,37.5,30.3,31.06,SSE,148,2.0,2.0,75,0.00,,,0.01,0.00,VWS V14.00,2013-01-31 05:21:00,
2013-01-30 22:26:00,37.4,30.2,31.07,SSE,148,0.0,2.0,75,0.00,,,0.01,0.00,VWS V14.00,2013-01-31 05:26:00,
2013-01-30 22:31:00,37.4,30.2,31.07,SSE,148,2.0,2.0,75,0.00,,,0.01,0.00,VWS V14.00,2013-01-31 05:31:00,
2013-01-30 22:36:00,37.3,30.1,31.07,SSE,147,0.0,4.0,75,0.00,,,0.01,0.00,VWS V14.00,2013-01-31 05:36:00,
2013-01-30 22:41:00,37.4,30.2,31.07,SSE,147,0.0,4.0,75,0.00,,,0.01,0.00,VWS V14.00,2013-01-31 05:41:00,
2013-01-30 22:46:00,37.4,30.2,31.07,SE,146,2.0,4.0,75,0.00,,,0.01,0.00,VWS V14.00,2013-01-31 05:46:00,
2013-01-30 22:51:00,37.5,30.3,31.06,SE,146,2.0,4.0,75,0.00,,,0.01,0.00,VWS V14.00,2013-01-31 05:51:00,
2013-01-30 22:56:00,37.5,30.3,31.06,SSE,147,4.0,5.0,75,0.00,,,0.01,0.00,VWS V14.00,2013-01-31 05:56:00,
2013-01-30 23:01:00,37.6,30.1,31.06,SE,145,4.0,6.0,74,0.00,,,0.01,0.00,VWS V14.00,2013-01-31 06:01:00,
2013-01-30 23:06:00,37.7,30.5,31.05,SE,145,2.0,6.0,75,0.00,,,0.01,0.00,VWS V14.00,2013-01-31 06:06:00,
2013-01-30 23:11:00,37.6,30.1,31.05,SSE,148,3.0,6.0,74,0.00,,,0.01,0.00,VWS V14.00,2013-01-31 06:11:00,
2013-01-30 23:16:00,37.7,30.2,31.06,SSE,150,1.0,6.0,74,0.00,,,0.01,0.00,VWS V14.00,2013-01-31 06:16:00,
2013-01-30 23:21:00,37.7,30.2,31.05,SSE,150,0.0,3.0,74,0.00,,,0.01,0.00,VWS V14.00,2013-01-31 06:21:00,
2013-01-30 23:26:00,37.6,30.4,31.05,SSE,150,0.0,3.0,75,0.00,,,0.01,0.00,VWS V14.00,2013-01-31 06:26:00,
2013-01-30 23:31:00,37.4,30.2,31.06,SSE,150,2.0,3.0,75,0.00,,,0.01,0.00,VWS V14.00,2013-01-31 06:31:00,
2013-01-30 23:36:00,37.1,30.2,31.06,SSE,150,0.0,1.0,76,0.00,,,0.01,0.00,VWS V14.00,2013-01-31 06:36:00,
2013-01-30 23:41:00,36.9,30.0,31.06,SSE,150,2.0,4.0,76,0.00,,,0.01,0.00,VWS V14.00,2013-01-31 06:41:00,
2013-01-30 23:46:00,36.9,29.7,31.06,SE,144,4.0,5.0,75,0.00,,,0.01,0.00,VWS V14.00,2013-01-31 06:46:00,
2013-01-30 23:51:00,37.0,29.8,31.06,SE,144,0.0,2.0,75,0.00,,,0.01,0.00,VWS V14.00,2013-01-31 06:51:00,
2013-01-30 23:56:00,37.0,29.8,31.07,SE,144,0.0,2.0,75,0.00,,,0.01,0.00,VWS V14.00,2013-01-31 06:56:00,